Location: Piedmont
(45.8748°N, 74.1254°W)
Time: 14:06:12
(UTC+00:00)

N. Korean satellite - Pass Details

Date: 05 December 2021
Orbit: 446 x 491 km, 97.3° (Epoch: 18 January)

Event Time Altitude Azimuth Distance (km) Brightness Sun altitude
Rises 10:32:01 0° 8° (N) 2,467 10.1 -18.4°
Reaches altitude 10° 10:34:05 10° 4° (N) 1,586 9.1 -18.1°
Maximum altitude 10:37:24 55° 286° (WNW) 543 6.4 -17.5°
Drops below altitude 10° 10:40:42 10° 207° (SSW) 1,570 9.0 -17.0°
Sets 10:42:44 0° 203° (SSW) 2,438 10.0 -16.6°
